Home > Weather > Liestal > Past weeks

Flag for Switzerland Past Weather in Liestal, Basel-Land, Switzerland — Yesterday and Last 2 Weeks

Now
70 °F

Scattered clouds.


Feels Like: 70 °F
Forecast: 62 / 79 °F
Wind: 3 mph from West

Location: Bale-Mulhouse

Current Time: Jul 25, 2016 at 10:20:19 PM

Latest Report: Jul 25, 2016 at 10:00 PM


Visibility: N/A

Pressure: 30.12 "Hg

Humidity: 83%

Dew Point: 64 °F

Location of LiestalLocation

Past Weather in Liestal — Graph

°F

Liestal Temperature Yesterday

Maximum temperature yesterday: 81 °F (at 4:30 PM)
Minimum temperature yesterday: 63 °F (at 5:00 AM)
Average temperature yesterday: 72 °F

High & Low Weather Summary for the Past Weeks

 TemperatureHumidityPressure
High95 °F (Jul 20, 3:30 PM)100% (Jul 13, 1:30 AM)30.33 "Hg (Jul 13, 1:30 AM)
Low45 °F (Jul 16, 5:00 AM)27% (Jul 19, 7:00 PM)29.92 "Hg (Jul 10, 9:00 PM)
Average68 °F73%30.10 "Hg
* Reported Jul 10 9:00 PM — Jul 25 9:00 PM, Liestal, Weather by CustomWeather, © 2016

Note: Actual official high and low records may vary slightly from our data, if they occured in-between our weather recording intervals... More about our weather records

Advertising

Liestal Weather History for the Previous 24 Hours

Scroll right to see more
 ConditionsComfort  
Time TempWeatherWind HumidityBarometerVisibility
9:00 PM
Mon, Jul 25
73 °FScattered clouds.3 mph74%30.09 "HgN/A
8:30 PM75 °FScattered clouds.5 mph65%30.09 "HgN/A
8:00 PM79 °FScattered clouds.6 mph54%30.09 "HgN/A
7:30 PM81 °FScattered clouds.6 mph51%30.09 "HgN/A
7:00 PM82 °FScattered clouds.7 mph48%30.09 "HgN/A
6:30 PM82 °FScattered clouds.7 mph48%30.09 "HgN/A
6:00 PM82 °FBroken clouds.7 mph48%30.09 "HgN/A
5:00 PM81 °FScattered clouds.8 mph51%30.09 "HgN/A
4:30 PM82 °FBroken clouds.9 mph55%30.09 "HgN/A
4:00 PM82 °FBroken clouds.6 mph51%30.09 "HgN/A
3:30 PM81 °FBroken clouds.7 mph54%30.09 "HgN/A
3:00 PM81 °FBroken clouds.7 mph54%30.09 "HgN/A
2:30 PM81 °FScattered clouds.6 mph54%30.09 "HgN/A
2:00 PM81 °FBroken clouds.7 mph51%30.09 "HgN/A
1:30 PM79 °FBroken clouds.5 mph58%30.12 "HgN/A
1:00 PM79 °FBroken clouds.7 mph54%30.12 "HgN/A
12:30 PM79 °FBroken clouds.7 mph58%30.12 "HgN/A
12:00 PM79 °FScattered clouds.6 mph58%30.12 "HgN/A
11:30 AM77 °FBroken clouds.7 mph61%30.12 "HgN/A
11:00 AM77 °FBroken clouds.3 mph61%30.12 "HgN/A
10:30 AM75 °FBroken clouds.3 mph69%30.12 "HgN/A
10:00 AM73 °FPartly sunny.3 mph74%30.12 "HgN/A
9:30 AM72 °FPartly sunny.3 mph78%30.12 "HgN/A
9:00 AM70 °FPartly sunny.No wind83%30.12 "HgN/A
8:30 AM68 °FPartly sunny.No wind83%30.12 "HgN/A
8:00 AM68 °FBroken clouds.2 mph88%30.12 "HgN/A
7:30 AM66 °FSunny.3 mph88%30.12 "Hg10 mi
7:00 AM63 °FSunny.No wind94%30.12 "Hg10 mi
6:30 AM61 °FFog.1 mph100%30.12 "Hg6 mi
6:00 AM61 °FFog.No wind100%30.12 "HgN/A
5:30 AM61 °FClear.1 mph94%30.12 "Hg10 mi
5:00 AM63 °FClear.1 mph94%30.12 "Hg10 mi
4:30 AM64 °FClear.3 mph94%30.12 "Hg10 mi
4:00 AM63 °FClear.1 mph94%30.12 "Hg5 mi
3:30 AM64 °FClear.No wind94%30.12 "Hg10 mi
3:00 AM66 °FClear.No wind88%30.12 "Hg10 mi
2:30 AM68 °FClear.1 mph88%30.12 "Hg10 mi
2:00 AM68 °FClear.2 mph88%30.12 "Hg10 mi
1:30 AM68 °FClear.2 mph88%30.12 "Hg10 mi
1:00 AM70 °FClear.5 mph83%30.12 "Hg10 mi
12:30 AM70 °FPassing clouds.3 mph78%30.12 "HgN/A
12:00 AM70 °FPassing clouds.5 mph78%30.12 "HgN/A
11:30 PM
Sun, Jul 24
72 °FPassing clouds.6 mph73%30.12 "HgN/A
11:00 PM70 °FPassing clouds.5 mph78%30.12 "HgN/A
10:30 PM72 °FPassing clouds.2 mph73%30.12 "HgN/A
10:00 PM72 °FPartly sunny.5 mph73%30.12 "HgN/A
Weather by CustomWeather, © 2016

See weather overviewHow to use our weather pages